www.pogodaiklimat.ru

Погода и климат >> Архив погоды >> Россия >> Чукотка >> Айон Остров


ПОГОДА на Айон Острове

  • Прогноз погоды на Айон Острове
  • Монитор погоды на Айон Острове

АРХИВ ПОГОДЫ на Айон Острове

Время (UTC), дата Ветер
(напр.,м/с)
 
Видим.   Явления Облачность Т
(С)
Тd
(С)
f
(%)
Тe
(С)
Тes
(С)
Комфортность P
(гПа)
Po
(гПа)
Тmin
(С)
Tmax
(С)
R
(мм)
R24
(мм)
S
(см)
21 15.04 В 4-5
{7}
20 км {метель} ясно -16.4 -19.5 77 -25 -23 1015.5 1013.7 -17.2 12
00 16.04 В 4-5
{6}
20 км {метель} 3/0
[Ci fib]
-11.8 -15.3 75 -19 -15 1014.3 1012.5
03 16.04 В 7-8
{8}
20 км позёмок 4/0
[Ci fib]
-9.3 -12.6 77 -18 -17 1013.1 1011.3
06 16.04 В 6-7
{8}
20 км позёмок 6/0
[Ci fib]
-11.0 -13.4 82 -20 -19 1011.9 1010.1
09 16.04 В 3-4
{9}
20 км {метель} 6/0
[Ac trans Ci fib]
-14.1 -16.3 83 -21 -21 1012.5 1010.7 -9.1
12 16.04 В 4-5
{6}
20 км {метель} 8/0
[Ac trans Ci fib]
-15.4 -18.0 80 -23 -23 1012.2 1010.4
15 16.04 В 2-3
{6}
20 км 8/0
[Ac trans Ci fib]
-17.3 -19.9 80 -23 -23 1012.2 1010.4
18 16.04 Ю 3-3
{3}
20 км 8/0
[Ac trans Ci fib]
-18.2 -20.3 84 -25 -25 1013.1 1011.2
21 16.04 ЮЗ 3-4
{5}
20 км 8/0
[Ac trans Ci fib]
-14.2 -16.6 82 -21 -19 1014.0 1012.2 -19.0 12
00 17.04 З 4-5
{5}
20 км 6/0
[Ac trans Ci fib]
-12.4 -15.1 80 -20 -16 1015.6 1013.8
03 17.04 СЗ 6-7
{7}
20 км позёмок 6/0
[Ci fib]
-11.8 -14.4 81 -21 -19 1017.8 1016.0
06 17.04 СЗ 5-6
{7}
20 км позёмок 8/0
[Ci fib]
-12.8 -15.2 82 -21 -20 1019.9 1018.1
09 17.04 З 4-5
{6}
20 км {метель} 3/0
[Ci fib]
-16.6 -18.6 84 -25 -25 1022.1 1020.3 -11.6
12 17.04 СЗ 2-3
{5}
20 км {метель} 3/0
[Ci fib]
-17.8 -19.6 86 -23 -23 1023.6 1021.7
15 17.04 ЮЗ 3-4
{5}
20 км 3/0
[Ac trans Ci fib]
-20.2 -23.4 76 -28 -28 1024.3 1022.4
18 17.04 ЮЗ 2-2
{4}
20 км 8/0
[Ac trans]
-21.4 -24.0 79 -27 -27 1024.6 1022.7
21 17.04 Ю 2-3
{3}
20 км 6/0
[Ac trans Ci fib]
-19.0 -21.6 80 -25 -22 1024.9 1023.0 -22.7 12
00 18.04 ЮВ 8-9
{9}
20 км позёмок 4/0
[Ac trans]
-16.0 -18.4 82 -27 -26 1023.9 1022.0
03 18.04 ЮВ 10-12
{12}
20 км позёмок 3/0
[Ac trans Ci fib]
-12.7 -14.7 85 -24 -24 1021.7 1019.8
06 18.04 ЮВ 9-12
{14}
20 км позёмок 3/0
[Ci fib]
-12.6 -14.8 84 -23 -23 1019.4 1017.5
09 18.04 ЮВ 10-13
{13}
20 км позёмок 3/0
[Ac trans Ci fib]
-14.4 -16.5 84 -26 -26 1016.9 1015.0 -12.2
12 18.04 ЮВ 11-14
{14}
20 км позёмок 3/0
[Ac trans]
-11.8 -15.3 75 -23 -23 1014.3 1012.5
15 18.04 ЮВ 13-15
{17}
20 км сильный позёмок 3/0
[Ac trans]
-12.1 -15.1 78 -24 -24 1012.5 1010.7
18 18.04 ЮВ 10-12
{15}
20 км позёмок 4/0
[Ac trans Ci fib]
-13.2 -15.9 80 -25 -25 1011.2 1009.4
21 18.04 Ю 9-11
{12}
20 км позёмок 10/0
[Ac und]
-12.1 -14.7 81 -23 -23 1010.9 1009.1 -14.4 11
00 19.04 ЮВ 6-7
{11}
20 км позёмок 10/0
[As op]
-8.2 -10.3 85 -17 -16 1010.8 1009.0
03 19.04 Ю 6-8
{9}
20 км позёмок 10/0
[As op]
-6.1 -7.9 87 -14 -14 1011.3 1009.5
06 19.04 З 12-16
{16}
2000 м метель 10/0
[As trans]
-9.2 -11.1 86 -21 -21 1013.9 1012.1
09 19.04 З 11-15
{18}
2000 м слаб. снег {метель} 10/0
[As op]
-11.4 -13.4 85 -23 -23 1016.5 1014.7 -4.5 0.2
12 19.04 З 12-14
{16}
2000 м метель {снег} 10/0
[As trans]
-11.9 -14.1 84 -24 -24 1017.3 1015.5
15 19.04 З 11-13
{16}
2000 м слаб. снег {метель} 10/0
[As op]
-13.1 -15.1 85 -25 -25 1018.5 1016.6
18 19.04 З 11-13
{15}
2000 м слаб. снег {метель} 10/0
[As op]
-14.1 -16.2 84 -26 -26 1019.0 1017.1
21 19.04 З 11-12
{15}
2000 м слаб. снег {метель} 10/0
[As op]
-14.9 -17.3 82 -27 -27 1019.7 1017.8 -14.9 0.9 10
00 20.04 З 10-13
{16}
2000 м слаб. снег {метель} 10/0
[As op]
-14.1 -16.8 80 -26 -26 1019.5 1017.6 -15.0
03 20.04 З 10-13
{15}
2000 м слаб. снег {метель} 10/0
[As op]
-13.5 -15.5 85 -25 -25 1019.6 1017.7
06 20.04 З 10-14
{15}
2000 м слаб. снег {метель} 10/0
[As op]
-13.6 -15.6 85 -25 -25 1019.0 1017.1
09 20.04 З 8-13
{15}
4000 м слаб. снег {метель} 10/0
[As op]
-13.4 -15.4 85 -24 -24 1019.3 1017.4 -13.1 1
12 20.04 З 8-11
{13}
4000 м слаб. снег {метель} 10/0
[As op]
-14.5 -16.5 85 -25 -25 1019.3 1017.4
15 20.04 З 8-10
{11}
4000 м слаб. снег {метель} 10/0
[As op]
-14.6 -16.7 84 -25 -25 1019.5 1017.6
18 20.04 З 9-10
{11}
4000 м слаб. снег {метель} 10/0
[As op]
-14.9 -16.9 85 -26 -26 1020.2 1018.3
21 20.04 З 8-10
{11}
4000 м метель {снег} 10/0
[As op]
-14.2 -16.6 82 -25 -25 1021.1 1019.2 -15.1 1 11
00 21.04 СЗ 9-12
{13}
4000 м метель {снег} 10/0
[As op]
-13.6 -16.2 81 -25 -25 1022.0 1020.1
03 21.04 СЗ 10-11
{12}
4000 м метель 10/0
[As trans]
-13.3 -16.0 80 -25 -25 1023.2 1021.3
06 21.04 СЗ 6-8
{11}
20 км позёмок 8/0
[Ac trans]
-13.8 -16.7 79 -23 -23 1024.5 1022.6
09 21.04 З 3-3
{8}
20 км {метель} 6/0
[Ac trans]
-16.9 -18.9 84 -24 -24 1025.8 1023.9 -13.2
12 21.04 С 3-4
{6}
20 км {метель} 10/0
[Ac und]
-14.7 -16.5 86 -21 -21 1026.2 1024.3
15 21.04 СВ 2-3
{4}
20 км 10/0
[Ac und]
-15.6 -17.5 85 -21 -21 1027.1 1025.2
18 21.04 С 1-2
{4}
20 км 10/0
[Ac und]
-15.8 -17.7 85 -18 -18 1027.6 1025.7
21 21.04 В 3-4
{4}
20 км 10/0
[Ac und]
-16.1 -18.1 85 -23 -22 1027.9 1026.0 -18.0 10
00 22.04 В 2-4
{4}
20 км 10/0
[Ac und]
-17.7 -20.3 80 -23 -21 1028.1 1026.2
03 22.04 СВ 2-3
{4}
20 км 8/0
[Ac trans]
-16.2 -18.8 80 -21 -19 1027.6 1025.7
06 22.04 В 3-4
{6}
20 км 3/0
[Ac trans]
-16.7 -19.1 82 -24 -22 1027.2 1025.3
09 22.04 ЮВ 5-6
{6}
20 км 1/0
[Ac trans]
-19.8 -22.3 80 -30 -30 1027.0 1025.1 -15.8
12 22.04 ЮВ 5-5
{6}
20 км ясно -21.6 -24.2 79 -32 -32 опасность
обморожения
1026.5 1024.6
15 22.04 ЮВ 6-6
{8}
20 км позёмок ясно -20.5 -23.0 80 -32 -32 опасность
обморожения
1026.1 1024.2
18 22.04 ЮВ 8-10
{10}
20 км позёмок ясно -19.9 -22.4 80 -32 -32 опасность
обморожения
1025.2 1023.3

 

Местоположение метеостанции Айон Остров (Чукотка, Россия): широта 69.93 долгота 167.90 высота над уровнем моря 14 м.

В архиве по умолчанию представлена погода на Айон Острове за последнюю неделю. Архивные данные за месяц целиком и за предыдущие месяцы, начиная с января 2011 года, Вы можете получить, выбрав интересующий диапазон дат из раскрывающегося списка и нажав кнопку "Ввод!".


*Определитесь, кто Вы:
робот инопланетянин человек

Внимание! Время в таблицах - всемирное. Для получения местного времени необходимо прибавить поправку, которая равна 12 ч.

Смотрите также архив погоды в соседних городах и на ближайших метеорологических станциях:

Погода в Раучуе (Чукотка, Россия) (72 км)
Погода в Певеке (Чукотка, Россия) (92 км)
Погода в Валькаркае (Чукотка, Россия) (115 км)
Погода на 21 км (Чукотка, Россия) (117 км)
Погода в Чауне (Чукотка, Россия) (160 км)
Погода в Комсомольской (Чукотка, Россия) (211 км)
Погода в Билибино (Чукотка, Россия) (217 км)
Погода в Бухте Амбарчик (Чукотка, Россия) (218 км)
Погода в Островном (Чукотка, Россия) (252 км)
Погода в Паляваам-Глубокой (Чукотка, Россия) (257 км)

Пояснения к столбцам:

Ветер - указаны скорость ветра в м/с - средняя за 10 мин, порывы в срок и между сроками (в фигурных скобках) и направление, откуда дует ветер: С - северный, СВ - северо-восточный, В - восточный, ЮВ - юго-восточный, Ю - южный, ЮЗ - юго-западный, З - западный, СЗ - северо-западный.
Видимость - горизонтальная дальность видимости в метрах или километрах. При видимости от 1 до 10 км при отсутствии осадков обычно наблюдается дымка, при ухудшении видимости до 1 км и менее - туман. В сухую погоду видимость может ухудшаться дымом, пылью или мглою.
Явления - указаны атмосферные явления, наблюдавшиеся в срок или в последний час перед сроком; фигурными скобками обозначены явления, наблюдавшиеся между сроками (за 1-3 часа до срока); квадратными скобками обозначены град или гололедные отложения с указанием их диаметра в мм.
Облачность - указаны через наклонную черту общая и нижняя облачность в баллах и высота нижней границы облаков в метрах; квадратными скобками обозначены формы облаков: Ci - перистые, Cs - перисто-слоистые, Cc - перисто-кучевые, Ac - высококучевые, As - высокослоистые, Sc - слоисто-кучевые, Ns - слоисто-дождевые, Cu - кучевые, Cb - кучево-дождевые. Подробнее классификацию облаков см. в Атласе облаков (PDF).
T - Температура воздуха - температура, измеренная на высоте 2 м над землей.
Td - Температура точки росы - температура, при понижении до которой содержащийся в воздухе водяной пар достигнет насыщения.
f - Относительная влажность воздуха - влажноcть воздуха, измеренная на высоте 2 м над землей.
Te - Эффективная температура - температура, которую ощущает одетый по сезону человек в тени. Характеристика душности погоды. При расчете учитывается влияние влажности воздуха и скорости ветра на теплоощущения человека.
Tes - Эффективная температура на солнце - температура, которую ощущает человек, с поправкой на солнечный нагрев. Характеристика знойности погоды. Зависит от высоты солнца над горизонтом, облачности и скорости ветра. Ночью, в пасмурную погоду, а также при ветре 12 м/с и более поправка равна нулю.
P - Атмосферное давление - приведенное к уровню моря атмосферное давление.
Po - Атмосферное давление - измеренное на уровне метеостанции атмосферное давление.
Tmin - Минимальная температура - минимум температуры воздуха на высоте 2 м над землей.
Tmax - Максимальная температура - максимум температуры воздуха на высоте 2 м над землей.
R - Количество осадков - Количество выпавших осадков за период времени, мм. При наведении курсора мыши на число - период времени, за который выпало указанное количество осадков.
R24 - Количество осадков - Количество выпавших осадков за 24 часа, мм.
S - Снежный покров - Высота снежного покрова, см. При наведении курсора мыши на число - состояние снежного покрова и степень покрытия местности в баллах.